Nashua, NH

8:34 PM EST on December 13, 2019 (GMT -0500)
Boire

Weather History for KASH - June, 2019

Change the Weather History Date:

Saturday, June 1, 2019

  Actual Average Record
Temperature  
Mean Temperature 64 °F -  
Max Temperature 77 °F 75 °F 93 °F (2013)
Min Temperature 51 °F 51 °F 33 °F (1967)
Degree Days  
Heating Degree Days 1    
Growing Degree Days 14 (Base 50)    
Moisture  
Dew Point 53 °F    
Average Humidity 77    
Maximum Humidity 100    
Minimum Humidity 43    
Precipitation  
Precipitation 0.00 in - - ()
Sea Level Pressure  
Sea Level Pressure 29.88 in    
Wind  
Wind Speed 4 mph ()    
Max Wind Speed 12 mph    
Max Gust Speed -    
Visibility 9.9 miles    
Events      
Averages and records for this station are not official NWS values.
T = Trace of Precipitation, MM = Missing Value Source: Averaged Metar Reports

Daily Weather History Graph

Daily Weather History Graph

Search for Another Location

Airport or City:

Astronomy

Jun. 01, 2019 Rise Set
Actual Time 5:10 AM EDT 8:17 PM EDT
Civil Twilight 4:36 AM EDT 8:51 PM EDT
Nautical Twilight 3:52 AM EDT 9:35 PM EDT
Astronomical Twilight 3:00 AM EDT 10:28 PM EDT
Moon 4:18 AM EDT (6/1) 6:24 PM EDT (6/1)
Length of Visible Light 16h 15m
Length of Day
15h 07m
Waning Crescent, 4% of the Moon is Illuminated
Jun 1
Waning Crescent
Jun 3
New
Jun 10
First Quarter
Jun 17
Full
Jun 25
Last Quarter

Hourly Weather History & Observations

Time (EDT) Temp. Dew Point Humidity Pressure Visibility Wind Dir Wind Speed Gust Speed Precip Events Conditions
12:56 AM 57.0 °F 54.0 °F 89% 29.83 in 10.0 mi Calm Calm - N/A   Overcast
1:56 AM 54.0 °F 54.0 °F 100% 29.84 in 8.0 mi WNW 3.5 mph - N/A   Partly Cloudy
2:56 AM 52.0 °F 52.0 °F 100% 29.84 in 10.0 mi WNW 4.6 mph - N/A   Clear
3:56 AM 53.1 °F 53.1 °F 100% 29.87 in 10.0 mi WNW 3.5 mph - N/A   Clear
4:56 AM 51.1 °F 51.1 °F 100% 29.88 in 10.0 mi WNW 3.5 mph - N/A   Clear
5:56 AM 51.1 °F 51.1 °F 100% 29.91 in 10.0 mi Calm Calm - N/A   Clear
6:56 AM 54.0 °F 52.0 °F 93% 29.94 in 10.0 mi Calm Calm - N/A   Clear
7:56 AM 57.9 °F 48.9 °F 72% 29.91 in 10.0 mi Variable 4.6 mph - N/A   Clear
8:56 AM 59.0 °F 48.0 °F 67% 29.93 in 10.0 mi North 6.9 mph - N/A   Clear
9:56 AM 62.1 °F 52.0 °F 70% 29.91 in 10.0 mi Variable 3.5 mph - N/A   Clear
10:56 AM 64.9 °F 52.0 °F 63% 29.92 in 10.0 mi Calm Calm - N/A   Clear
11:56 AM 71.1 °F 48.9 °F 45% 29.91 in 10.0 mi SE 6.9 mph - N/A   Clear
12:56 PM 72.0 °F 51.1 °F 48% 29.88 in 10.0 mi Variable 5.8 mph - N/A   Clear
1:56 PM 75.0 °F 51.1 °F 43% 29.87 in 10.0 mi ESE 9.2 mph - N/A   Clear
2:56 PM 77.0 °F 53.1 °F 43% 29.85 in 10.0 mi ESE 9.2 mph - N/A   Partly Cloudy
3:56 PM 75.0 °F 54.0 °F 48% 29.83 in 10.0 mi SE 6.9 mph - N/A   Scattered Clouds
4:56 PM 77.0 °F 53.1 °F 43% 29.83 in 10.0 mi Variable 6.9 mph - N/A   Partly Cloudy
5:56 PM 72.0 °F 55.0 °F 55% 29.84 in 10.0 mi ESE 11.5 mph - N/A   Mostly Cloudy
6:56 PM 64.9 °F 55.9 °F 73% 29.86 in 10.0 mi East 10.4 mph - N/A   Mostly Cloudy
7:56 PM 61.0 °F 55.9 °F 83% 29.87 in 10.0 mi ESE 6.9 mph - N/A   Clear
8:56 PM 59.0 °F 55.9 °F 90% 29.88 in 10.0 mi Variable 5.8 mph - N/A   Clear
9:56 PM 57.9 °F 55.9 °F 93% 29.89 in 10.0 mi East 4.6 mph - N/A   Clear
10:24 PM 57.2 °F 55.4 °F 94% 29.85 in 10.0 mi ESE 4.6 mph - N/A   Mostly Cloudy
10:42 PM 57.2 °F 55.4 °F 94% 29.85 in 10.0 mi East 5.8 mph - N/A   Overcast
10:56 PM 57.0 °F 55.9 °F 96% 29.88 in 10.0 mi East 5.8 mph - N/A   Overcast
11:56 PM 57.0 °F 55.9 °F 96% 29.88 in 10.0 mi Calm Calm - N/A   Overcast